Regional Weather Roundup
Issued by NWS

Home | Current Version | Previous Version | Graphics & Text | Print | Product List | Glossary On
Versions: 1 2 3 4 5 6 7 8 9 10 11 12 13 14 15 16 17 18 19 20 21 22 23 24 25 26 27 28 29 30 31 32 33 34 35 36 37 38 39 40 41 42 43 44 45 46 47 48 49 50
000
ASUS45 KABQ 221501
RWRNM
NEW MEXICO REGIONAL WEATHER ROUNDUP
NATIONAL WEATHER SERVICE ALBUQUERQUE NM
900 AM MDT SAT JUL 22 2017

NOTE: "FAIR" MEANS FEW OR NO CLOUDS BELOW 12,000 FEET AGL WITH NO
       SIGNIFICANT WEATHER OR OBSTRUCTIONS TO VISION.

      THIS PRODUCT IS RELEASED AS TWO VERSIONS.  ONE VERSION NEAR
      THE TOP OF THE HOUR CONTAINING PRELIMINARY DATA FROM ALBUQUERQUE
      AND OTHER STATIONS.  A FINAL VERSION WITH ADDITIONAL DATA IS
      ISSUED ABOUT 10 MINUTES AFTER THE HOUR.

NMZ501-503-504-510>518-221600-
NORTHWEST PLATEAU/NORTHCENTRAL MOUNTAINS

CITY           SKY/WX    TMP DP  RH WIND       PRES   REMARKS
FARMINGTON     FAIR      72  57  59 E3        30.20R
LOS ALAMOS     FAIR      69  48  47 CALM      30.34R
SANTA FE       FAIR      71  58  63 SW5       30.26S
TAOS           FAIR      70  46  43 NW5       30.34R
ANGEL FIRE     FAIR      61  47  60 CALM      30.43S

$$
NMZ402-403-502-505>509-221600-
WESTCENTRAL MOUNTAINS/SOUTHWEST MOUNTAINS

CITY           SKY/WX    TMP DP  RH WIND       PRES   REMARKS
GALLUP         FAIR      70  56  61 NE6       30.26R
GRANTS         FAIR      70  53  54 N7        30.29R
SILVER CITY    CLOUDY    72  63  74 NW7       30.20R

$$
NMZ407-409-411-412-221600-
SOUTHERN DESERTS

CITY           SKY/WX    TMP DP  RH WIND       PRES   REMARKS
DEMING         FAIR      73  66  78 CALM      30.13R
LAS CRUCES     FAIR      74  64  72 CALM      30.15S
HOLLOMAN AFB   FAIR      75  64  68 SE7       30.14R
ALAMOGORDO     FAIR      73  63  68 S6        30.14S
T OR C         FAIR      74  61  63 CALM      30.16R

$$
NMZ519>523-221600-
CENTRAL VALLEYS/CENTRAL HIGHLANDS

CITY           SKY/WX    TMP DP  RH WIND       PRES   REMARKS
ALBUQUERQUE    FAIR      72  59  63 S6        30.21R
DOUBLE EAGLE   MOSUNNY   72  57  60 CALM      30.24
MORIARTY ARPT  FAIR      72  58  61 S3        30.27F
CLINES CORNERS FAIR      72  48  42 E12       30.31S
BELEN          NOT AVBL
SOCORRO        FAIR      74  59  59 SE3       30.17R

$$
NMZ524>526-539-540-221600-
SOUTHCENTRAL MOUNTAINS

CITY           SKY/WX    TMP DP  RH WIND       PRES   REMARKS
RUIDOSO        PTSUNNY   68  54  60 CALM      30.32R

$$
NMZ527>531-221600-
NORTHEAST HIGHLANDS/NORTHEAST PLAINS

CITY           SKY/WX    TMP DP  RH WIND       PRES   REMARKS
LAS VEGAS      FAIR      71  48  43 NE10      30.31S
RATON          FAIR      76  49  38 NE8       30.26R
CLAYTON        FAIR      78  53  41 NE12      30.16F

$$
NMZ532>537-221600-
EASTCENTRAL PLAINS

CITY           SKY/WX    TMP DP  RH WIND       PRES   REMARKS
SANTA ROSA     FAIR      80  51  37 N10       30.14S
TUCUMCARI      FAIR      83  56  39 NE7       30.08R
CANNON AFB     FAIR      81  59  46 SW6       30.12F
CLOVIS AIRPORT FAIR      83  61  47 SW7       30.12S

$$
NMZ028-029-538-221600-
SOUTHEAST PLAINS

CITY           SKY/WX    TMP DP  RH WIND       PRES   REMARKS
ROSWELL        FAIR      80  57  45 CALM      30.08R
ARTESIA        FAIR      84  59  42 CALM      30.07S
CARLSBAD       FAIR      82  64  54 VRB3      30.05R
HOBBS          SUNNY     77  61  57 SE6       30.09S


$$




USA.gov is the U.S. government's official web portal to all federal, state and local government web resources and services.